| time (UTC) | temp C | wind direction | speed KPH | gust KPH | rain 1hr cm | rain 24hr cm | rain mn cm | humidity % | barometer mb |
| 20260510231331 | 15 | 161 | 1.6 | 3.2 | 0.00 | 0.33 | 0.33 | 93 | 1014.9 |
| 20260510230828 | 15 | 161 | 1.6 | 3.2 | 0.00 | 0.33 | 0.33 | 92 | 1015.2 |
| 20260510230323 | 15 | 162 | 1.6 | 3.2 | 0.00 | 0.33 | 0.33 | 91 | 1015.2 |
| 20260510225820 | 16 | 162 | 0.0 | 1.6 | 0.00 | 0.33 | 0.33 | 90 | 1015.1 |
| 20260510225316 | 16 | 162 | 1.6 | 3.2 | 0.00 | 0.33 | 0.33 | 88 | 1015.1 |
| 20260510224812 | 16 | 163 | 1.6 | 3.2 | 0.00 | 0.33 | 0.33 | 87 | 1015.0 |
| 20260510224308 | 16 | 162 | 0.0 | 3.2 | 0.00 | 0.33 | 0.33 | 87 | 1014.8 |
| 20260510223806 | 16 | 175 | 3.2 | 3.2 | 0.00 | 0.33 | 0.33 | 88 | 1014.8 |
| 20260510223302 | 16 | 175 | 0.0 | 1.6 | 0.00 | 0.33 | 0.33 | 90 | 1014.7 |
| 20260510222800 | 16 | 176 | 3.2 | 3.2 | 0.00 | 0.33 | 0.33 | 89 | 1014.8 |
| 20260510222257 | 15 | 172 | 1.6 | 4.8 | 0.00 | 0.33 | 0.33 | 90 | 1014.8 |
| 20260510221752 | 15 | 172 | 1.6 | 3.2 | 0.00 | 0.33 | 0.33 | 91 | 1014.7 |
| 20260510221249 | 15 | 173 | 1.6 | 3.2 | 0.00 | 0.33 | 0.33 | 92 | 1014.9 |
| 20260510220745 | 15 | 183 | 3.2 | 3.2 | 0.00 | 0.33 | 0.33 | 92 | 1014.9 |
| 20260510220241 | 15 | 168 | 1.6 | 1.6 | 0.00 | 0.33 | 0.33 | 92 | 1014.9 |
| 20260510215738 | 15 | 178 | 3.2 | 3.2 | 0.00 | 0.33 | 0.33 | 93 | 1014.9 |
| 20260510215236 | 15 | 160 | 1.6 | 1.6 | 0.00 | 0.33 | 0.33 | 94 | 1014.8 |
| 20260510214732 | 15 | 164 | 1.6 | 3.2 | 0.00 | 0.33 | 0.33 | 94 | 1014.7 |
| 20260510214230 | 15 | 171 | 0.0 | 3.2 | 0.00 | 0.33 | 0.33 | 94 | 1014.8 |
| 20260510213727 | 15 | 155 | 1.6 | 3.2 | 0.00 | 0.33 | 0.33 | 94 | 1014.7 |
| 20260510213223 | 15 | 150 | 0.0 | 3.2 | 0.00 | 0.33 | 0.33 | 94 | 1014.4 |
| 20260510212719 | 15 | 158 | 0.0 | 0.0 | 0.00 | 0.33 | 0.33 | 94 | 1014.6 |
| 20260510212217 | 14 | 171 | 0.0 | 1.6 | 0.00 | 0.33 | 0.33 | 93 | 1014.4 |
| 20260510211714 | 14 | 179 | 3.2 | 3.2 | 0.00 | 0.33 | 0.33 | 93 | 1014.4 |
| 20260510211208 | 14 | 187 | 1.6 | 4.8 | 0.00 | 0.33 | 0.33 | 92 | 1014.5 |
| 20260510210705 | 14 | 203 | 1.6 | 4.8 | 0.00 | 0.33 | 0.33 | 92 | 1014.3 |
| 20260510210200 | 14 | 269 | 0.0 | 1.6 | 0.48 | 0.33 | 0.33 | 91 | 1014.5 |
| 20260510205700 | 14 | 327 | 1.6 | 8.0 | 1.68 | 0.33 | 0.33 | 90 | 1014.4 |
| 20260510205156 | 15 | 268 | 9.7 | 14.5 | 1.02 | 0.20 | 0.20 | 86 | 1014.9 |
| 20260510204652 | 16 | 26 | 1.6 | 4.8 | 0.13 | 0.05 | 0.05 | 83 | 1014.4 |
| 20260510204149 | 16 | 283 | 1.6 | 3.2 | 0.00 | 0.03 | 0.03 | 80 | 1014.1 |
| 20260510203646 | 17 | 278 | 0.0 | 3.2 | 0.00 | 0.03 | 0.03 | 80 | 1014.2 |
| 20260510203143 | 17 | 278 | 0.0 | 1.6 | 0.00 | 0.03 | 0.03 | 81 | 1014.1 |
| 20260510202642 | 16 | 275 | 1.6 | 8.0 | 0.00 | 0.03 | 0.03 | 79 | 1014.2 |
| 20260510202138 | 16 | 26 | 3.2 | 9.7 | 0.18 | 0.03 | 0.03 | 81 | 1014.1 |
| 20260510201636 | 16 | 268 | 4.8 | 11.3 | 0.18 | 0.03 | 0.03 | 80 | 1014.3 |
| 20260510201132 | 17 | 221 | 1.6 | 12.9 | 0.00 | 0.00 | 0.00 | 78 | 1014.4 |
| 20260510200629 | 19 | 269 | 4.8 | 8.0 | 0.00 | 0.00 | 0.00 | 72 | 1013.8 |
| 20260510200127 | 19 | 310 | 0.0 | 4.8 | 0.00 | 0.00 | 0.00 | 72 | 1013.7 |
| 20260510195624 | 19 | 219 | 3.2 | 3.2 | 0.00 | 0.00 | 0.00 | 71 | 1013.9 |
| 20260510195120 | 20 | 219 | 1.6 | 1.6 | 0.00 | 0.00 | 0.00 | 72 | 1013.8 |
| 20260510194619 | 20 | 207 | 4.8 | 8.0 | 0.00 | 0.00 | 0.00 | 71 | 1013.8 |
| 20260510194116 | 20 | 198 | 3.2 | 9.7 | 0.00 | 0.00 | 0.00 | 71 | 1014.4 |
| 20260510193616 | 20 | 276 | 1.6 | 8.0 | 0.00 | 0.00 | 0.00 | 71 | 1014.1 |
| 20260510193112 | 20 | 206 | 3.2 | 3.2 | 0.00 | 0.00 | 0.00 | 72 | 1014.1 |
| 20260510192607 | 20 | 215 | 1.6 | 8.0 | 0.00 | 0.00 | 0.00 | 72 | 1013.9 |
| 20260510192103 | 20 | 208 | 8.0 | 8.0 | 0.00 | 0.00 | 0.00 | 70 | 1014.2 |
| 20260510191600 | 20 | 194 | 4.8 | 4.8 | 0.00 | 0.00 | 0.00 | 69 | 1013.9 |
| 20260510191057 | 20 | 225 | 4.8 | 12.9 | 0.00 | 0.00 | 0.00 | 70 | 1014.0 |
| 20260510190554 | 20 | 198 | 1.6 | 3.2 | 0.00 | 0.00 | 0.00 | 71 | 1013.6 |
| 20260510190051 | 20 | 200 | 1.6 | 8.0 | 0.00 | 0.00 | 0.00 | 70 | 1014.0 |
| 20260510185548 | 20 | 195 | 1.6 | 4.8 | 0.00 | 0.00 | 0.00 | 71 | 1013.8 |
| 20260510185040 | 20 | 198 | 0.0 | 4.8 | 0.00 | 0.00 | 0.00 | 69 | 1014.0 |
| 20260510184537 | 20 | 196 | 8.0 | 14.5 | 0.00 | 0.00 | 0.00 | 67 | 1014.1 |
| 20260510184032 | 20 | 301 | 4.8 | 8.0 | 0.00 | 0.00 | 0.00 | 67 | 1014.1 |
| 20260510183528 | 21 | 238 | 1.6 | 3.2 | 0.00 | 0.00 | 0.00 | 68 | 1014.2 |
| 20260510183023 | 21 | 212 | 3.2 | 11.3 | 0.00 | 0.00 | 0.00 | 67 | 1014.4 |
| 20260510182520 | 20 | 201 | 4.8 | 11.3 | 0.00 | 0.00 | 0.00 | 68 | 1014.1 |
| 20260510182021 | 21 | 296 | 4.8 | 11.3 | 0.00 | 0.00 | 0.00 | 67 | 1014.0 |
| 20260510181519 | 21 | 228 | 11.3 | 14.5 | 0.00 | 0.00 | 0.00 | 67 | 1014.1 |
| 20260510181015 | 20 | 308 | 3.2 | 9.7 | 0.00 | 0.00 | 0.00 | 69 | 1014.2 |
| 20260510180512 | 21 | 165 | 0.0 | 8.0 | 0.00 | 0.00 | 0.00 | 68 | 1014.2 |
| 20260510180010 | 21 | 204 | 4.8 | 8.0 | 0.00 | 0.00 | 0.00 | 68 | 1014.1 |
| 20260510175504 | 20 | 201 | 3.2 | 4.8 | 0.00 | 0.00 | 0.00 | 70 | 1014.2 |
| 20260510175001 | 20 | 185 | 0.0 | 8.0 | 0.00 | 0.00 | 0.00 | 72 | 1014.3 |
| 20260510174459 | 20 | 213 | 4.8 | 9.7 | 0.00 | 0.00 | 0.00 | 70 | 1014.3 |
| 20260510173955 | 20 | 226 | 1.6 | 14.5 | 0.00 | 0.00 | 0.00 | 70 | 1014.4 |
| 20260510173451 | 21 | 257 | 3.2 | 4.8 | 0.00 | 0.00 | 0.00 | 68 | 1014.0 |
| 20260510172948 | 20 | 210 | 1.6 | 3.2 | 0.00 | 0.00 | 0.00 | 69 | 1013.9 |
| 20260510172443 | 20 | 211 | 3.2 | 3.2 | 0.00 | 0.00 | 0.00 | 68 | 1013.8 |
| 20260510171940 | 20 | 154 | 0.0 | 1.6 | 0.00 | 0.00 | 0.00 | 70 | 1013.8 |
| 20260510171437 | 20 | 154 | 1.6 | 4.8 | 0.00 | 0.00 | 0.00 | 69 | 1014.0 |
| 20260510170934 | 20 | 253 | 1.6 | 9.7 | 0.00 | 0.00 | 0.00 | 72 | 1014.1 |
| 20260510170430 | 20 | 195 | 1.6 | 3.2 | 0.00 | 0.00 | 0.00 | 70 | 1014.1 |
| 20260510165926 | 20 | 186 | 3.2 | 11.3 | 0.00 | 0.00 | 0.00 | 71 | 1014.2 |
| 20260510165422 | 19 | 169 | 1.6 | 8.0 | 0.00 | 0.00 | 0.00 | 71 | 1014.4 |
| 20260510164919 | 19 | 197 | 3.2 | 9.7 | 0.00 | 0.00 | 0.00 | 73 | 1014.2 |
| 20260510164417 | 20 | 207 | 6.4 | 8.0 | 0.00 | 0.00 | 0.00 | 73 | 1014.4 |
| 20260510163917 | 19 | 295 | 3.2 | 4.8 | 0.00 | 0.00 | 0.00 | 72 | 1014.2 |
| 20260510163413 | 18 | 311 | 1.6 | 11.3 | 0.00 | 0.00 | 0.00 | 73 | 1014.5 |
| 20260510162907 | 18 | 143 | 0.0 | 8.0 | 0.00 | 0.00 | 0.00 | 77 | 1014.5 |
| 20260510162405 | 18 | 262 | 1.6 | 8.0 | 0.00 | 0.00 | 0.00 | 77 | 1014.5 |
| 20260510161901 | 17 | 222 | 4.8 | 8.0 | 0.00 | 0.00 | 0.00 | 79 | 1014.6 |
| 20260510161356 | 17 | 159 | 1.6 | 3.2 | 0.00 | 0.00 | 0.00 | 78 | 1014.7 |
| 20260510160853 | 17 | 181 | 3.2 | 3.2 | 0.00 | 0.00 | 0.00 | 79 | 1014.4 |
| 20260510160351 | 17 | 206 | 1.6 | 4.8 | 0.00 | 0.00 | 0.00 | 79 | 1014.2 |
| 20260510155844 | 17 | 170 | 1.6 | 8.0 | 0.00 | 0.00 | 0.00 | 80 | 1014.4 |
| 20260510155341 | 17 | 185 | 1.6 | 3.2 | 0.00 | 0.00 | 0.00 | 80 | 1014.4 |
| 20260510154837 | 17 | 150 | 1.6 | 1.6 | 0.00 | 0.00 | 0.00 | 81 | 1014.5 |
| 20260510154333 | 17 | 192 | 3.2 | 11.3 | 0.00 | 0.00 | 0.00 | 80 | 1014.9 |
| 20260510153828 | 17 | 239 | 3.2 | 4.8 | 0.00 | 0.00 | 0.00 | 80 | 1014.6 |
| 20260510153324 | 16 | 179 | 1.6 | 1.6 | 0.00 | 0.00 | 0.00 | 81 | 1014.7 |
| 20260510152821 | 17 | 181 | 3.2 | 3.2 | 0.00 | 0.00 | 0.00 | 80 | 1014.7 |
| 20260510152318 | 17 | 171 | 1.6 | 3.2 | 0.00 | 0.00 | 0.00 | 80 | 1014.8 |
| 20260510151814 | 17 | 173 | 1.6 | 1.6 | 0.00 | 0.00 | 0.00 | 80 | 1014.9 |
| 20260510151312 | 17 | 158 | 1.6 | 4.8 | 0.00 | 0.00 | 0.00 | 79 | 1014.9 |
| 20260510150808 | 17 | 164 | 1.6 | 9.7 | 0.00 | 0.00 | 0.00 | 79 | 1014.8 |
| 20260510150303 | 17 | 152 | 0.0 | 1.6 | 0.00 | 0.00 | 0.00 | 81 | 1014.8 |
| 20260510145800 | 17 | 151 | 3.2 | 3.2 | 0.00 | 0.00 | 0.00 | 79 | 1014.8 |
| 20260510145257 | 17 | 173 | 3.2 | 3.2 | 0.00 | 0.00 | 0.00 | 82 | 1014.8 |
| 20260510144753 | 17 | 144 | 1.6 | 4.8 | 0.00 | 0.00 | 0.00 | 80 | 1014.7 |
| 20260510144250 | 16 | 172 | 3.2 | 3.2 | 0.00 | 0.00 | 0.00 | 79 | 1014.7 |
| 20260510143749 | 16 | 160 | 0.0 | 3.2 | 0.00 | 0.00 | 0.00 | 81 | 1015.0 |
| 20260510143246 | 16 | 166 | 0.0 | 1.6 | 0.00 | 0.00 | 0.00 | 80 | 1014.5 |
| 20260510142743 | 16 | 170 | 1.6 | 3.2 | 0.00 | 0.00 | 0.00 | 82 | 1014.4 |
| 20260510142240 | 16 | 171 | 0.0 | 1.6 | 0.00 | 0.00 | 0.00 | 83 | 1014.6 |
| 20260510141737 | 15 | 172 | 1.6 | 1.6 | 0.00 | 0.00 | 0.00 | 83 | 1014.8 |
| 20260510141235 | 15 | 173 | 1.6 | 3.2 | 0.00 | 0.00 | 0.00 | 85 | 1014.8 |
| 20260510140731 | 14 | 173 | 0.0 | 0.0 | 0.00 | 0.00 | 0.00 | 87 | 1014.6 |
| 20260510140226 | 13 | 174 | 0.0 | 1.6 | 0.00 | 0.00 | 0.00 | 88 | 1014.6 |
| 20260510135720 | 13 | 173 | 3.2 | 4.8 | 0.00 | 0.00 | 0.00 | 89 | 1014.6 |
| 20260510135216 | 13 | 132 | 0.0 | 0.0 | 0.00 | 0.00 | 0.00 | 91 | 1014.6 |
| 20260510134714 | 13 | 131 | 0.0 | 0.0 | 0.00 | 0.00 | 0.00 | 92 | 1014.7 |
| 20260510134211 | 12 | 131 | 0.0 | 0.0 | 0.00 | 0.00 | 0.00 | 92 | 1014.7 |
| 20260510133707 | 12 | 132 | 0.0 | 0.0 | 0.00 | 0.00 | 0.00 | 93 | 1014.7 |
| 20260510133202 | 12 | 132 | 0.0 | 0.0 | 0.00 | 0.00 | 0.00 | 94 | 1014.6 |
| 20260510132659 | 12 | 132 | 0.0 | 0.0 | 0.00 | 0.00 | 0.00 | 95 | 1014.4 |
| 20260510132156 | 12 | 133 | 0.0 | 0.0 | 0.00 | 0.00 | 0.00 | 95 | 1014.4 |
| 20260510131654 | 12 | 133 | 0.0 | 0.0 | 0.00 | 0.00 | 0.00 | 96 | 1014.8 |
| 20260510131151 | 12 | 134 | 0.0 | 0.0 | 0.00 | 0.00 | 0.00 | 97 | 1014.9 |
| 20260510130647 | 12 | 133 | 0.0 | 0.0 | 0.00 | 0.00 | 0.00 | 97 | 1014.6 |
| 20260510130144 | 12 | 136 | 0.0 | 0.0 | 0.00 | 0.00 | 0.00 | 97 | 1014.6 |
| 20260510125641 | 11 | 138 | 0.0 | 0.0 | 0.00 | 0.00 | 0.00 | 98 | 1014.7 |
| 20260510125137 | 11 | 134 | 0.0 | 0.0 | 0.00 | 0.00 | 0.00 | 98 | 1014.7 |
| 20260510124634 | 11 | 136 | 0.0 | 0.0 | 0.00 | 0.00 | 0.00 | 98 | 1014.6 |
| 20260510124131 | 11 | 136 | 0.0 | 0.0 | 0.00 | 0.00 | 0.00 | 98 | 1014.4 |
| 20260510123626 | 11 | 137 | 0.0 | 0.0 | 0.00 | 0.00 | 0.00 | 98 | 1014.3 |
| 20260510123123 | 11 | 139 | 0.0 | 0.0 | 0.00 | 0.00 | 0.00 | 99 | 1014.5 |
| 20260510122619 | 11 | 137 | 0.0 | 0.0 | 0.00 | 0.00 | 0.00 | 99 | 1014.4 |
| 20260510122114 | 11 | 143 | 1.6 | 1.6 | 0.00 | 0.00 | 0.00 | 99 | 1014.5 |
| 20260510121612 | 11 | 136 | 0.0 | 0.0 | 0.00 | 0.00 | 0.00 | 99 | 1014.3 |
| 20260510121109 | 11 | 145 | 0.0 | 1.6 | 0.00 | 0.00 | 0.00 | 99 | 1014.4 |
| 20260510120607 | 11 | 146 | 1.6 | 3.2 | 0.00 | 0.00 | 0.00 | 99 | 1014.1 |
| 20260510115559 | 11 | 136 | 0.0 | 0.0 | 0.00 | 0.00 | 0.00 | 99 | 1014.2 |
| 20260510115056 | 11 | 136 | 0.0 | 0.0 | 0.00 | 0.00 | 0.00 | 99 | 1014.0 |
| 20260510114551 | 10 | 137 | 0.0 | 0.0 | 0.00 | 0.00 | 0.00 | 99 | 1013.9 |
| 20260510114048 | 10 | 137 | 0.0 | 0.0 | 0.00 | 0.00 | 0.00 | 99 | 1014.1 |
| 20260510113543 | 10 | 137 | 0.0 | 0.0 | 0.00 | 0.00 | 0.00 | 99 | 1013.9 |
| 20260510113041 | 10 | 153 | 0.0 | 3.2 | 0.00 | 0.00 | 0.00 | 99 | 1013.7 |
| 20260510112537 | 10 | 135 | 0.0 | 0.0 | 0.00 | 0.00 | 0.00 | 99 | 1013.6 |
| 20260510112034 | 10 | 139 | 0.0 | 0.0 | 0.00 | 0.00 | 0.00 | 99 | 1013.6 |
| 20260510111531 | 10 | 149 | 0.0 | 1.6 | 0.00 | 0.00 | 0.00 | 99 | 1013.8 |
| 20260510111027 | 10 | 131 | 0.0 | 0.0 | 0.00 | 0.00 | 0.00 | 99 | 1013.7 |
| 20260510110523 | 10 | 129 | 0.0 | 0.0 | 0.00 | 0.00 | 0.00 | 99 | 1013.7 |
| 20260510110020 | 10 | 124 | 0.0 | 0.0 | 0.00 | 0.00 | 0.00 | 99 | 1013.7 |
| 20260510105515 | 10 | 123 | 0.0 | 0.0 | 0.00 | 0.00 | 0.00 | 99 | 1013.6 |
| 20260510105010 | 10 | 123 | 0.0 | 0.0 | 0.00 | 0.00 | 0.00 | 99 | 1013.7 |
| 20260510104507 | 10 | 123 | 0.0 | 0.0 | 0.00 | 0.00 | 0.00 | 99 | 1013.6 |
| 20260510104003 | 10 | 122 | 0.0 | 0.0 | 0.00 | 0.00 | 0.00 | 99 | 1013.6 |
| 20260510103500 | 10 | 122 | 0.0 | 0.0 | 0.00 | 0.00 | 0.00 | 99 | 1013.6 |
| 20260510102956 | 10 | 124 | 0.0 | 0.0 | 0.00 | 0.00 | 0.00 | 99 | 1013.5 |
| 20260510102452 | 10 | 122 | 0.0 | 0.0 | 0.00 | 0.00 | 0.00 | 99 | 1013.4 |
| 20260510101948 | 10 | 118 | 0.0 | 0.0 | 0.00 | 0.00 | 0.00 | 99 | 1013.5 |
| 20260510101446 | 10 | 117 | 0.0 | 0.0 | 0.00 | 0.00 | 0.00 | 99 | 1013.4 |
| 20260510100945 | 10 | 117 | 0.0 | 0.0 | 0.00 | 0.00 | 0.00 | 99 | 1013.2 |
| 20260510100440 | 10 | 121 | 0.0 | 0.0 | 0.00 | 0.00 | 0.00 | 99 | 1013.5 |
| 20260510095937 | 10 | 120 | 0.0 | 0.0 | 0.00 | 0.00 | 0.00 | 99 | 1013.3 |
| 20260510095433 | 10 | 118 | 0.0 | 0.0 | 0.00 | 0.00 | 0.00 | 99 | 1013.4 |
| 20260510094932 | 10 | 116 | 0.0 | 0.0 | 0.00 | 0.00 | 0.00 | 99 | 1013.4 |
| 20260510094426 | 10 | 114 | 0.0 | 0.0 | 0.00 | 0.00 | 0.00 | 99 | 1013.5 |
| 20260510093923 | 10 | 146 | 0.0 | 0.0 | 0.00 | 0.00 | 0.00 | 99 | 1013.8 |
| 20260510093418 | 10 | 154 | 0.0 | 0.0 | 0.00 | 0.00 | 0.00 | 99 | 1013.4 |
| 20260510092915 | 10 | 138 | 0.0 | 0.0 | 0.00 | 0.00 | 0.00 | 99 | 1013.6 |
| 20260510092413 | 10 | 139 | 0.0 | 0.0 | 0.00 | 0.00 | 0.00 | 99 | 1013.4 |
| 20260510091913 | 10 | 139 | 0.0 | 0.0 | 0.00 | 0.00 | 0.00 | 99 | 1013.4 |
| 20260510091410 | 10 | 140 | 0.0 | 0.0 | 0.00 | 0.00 | 0.00 | 99 | 1013.5 |
| 20260510090906 | 10 | 140 | 0.0 | 0.0 | 0.00 | 0.00 | 0.00 | 99 | 1013.4 |
| 20260510090403 | 10 | 140 | 0.0 | 0.0 | 0.00 | 0.00 | 0.00 | 99 | 1013.7 |
| 20260510085859 | 10 | 141 | 0.0 | 0.0 | 0.00 | 0.00 | 0.00 | 99 | 1013.7 |
| 20260510085354 | 10 | 142 | 0.0 | 0.0 | 0.00 | 0.00 | 0.00 | 99 | 1013.8 |
| 20260510084849 | 10 | 142 | 0.0 | 0.0 | 0.00 | 0.00 | 0.00 | 99 | 1013.7 |
| 20260510084348 | 10 | 143 | 0.0 | 0.0 | 0.00 | 0.00 | 0.00 | 99 | 1013.7 |
| 20260510083844 | 10 | 146 | 0.0 | 0.0 | 0.00 | 0.00 | 0.00 | 99 | 1013.6 |
| 20260510083340 | 10 | 144 | 0.0 | 0.0 | 0.00 | 0.00 | 0.00 | 99 | 1013.7 |
| 20260510082836 | 10 | 145 | 0.0 | 0.0 | 0.00 | 0.00 | 0.00 | 99 | 1013.8 |
| 20260510082334 | 10 | 153 | 0.0 | 0.0 | 0.00 | 0.00 | 0.00 | 99 | 1013.9 |
| 20260510081832 | 10 | 164 | 0.0 | 0.0 | 0.00 | 0.00 | 0.00 | 99 | 1013.7 |
| 20260510081328 | 10 | 168 | 0.0 | 0.0 | 0.00 | 0.00 | 0.00 | 99 | 1013.6 |
| 20260510080825 | 10 | 326 | 1.6 | 3.2 | 0.00 | 0.00 | 0.00 | 99 | 1013.7 |
| 20260510080319 | 10 | 341 | 1.6 | 1.6 | 0.00 | 0.00 | 0.00 | 99 | 1013.8 |
| 20260510075817 | 10 | 121 | 0.0 | 1.6 | 0.00 | 0.00 | 0.00 | 99 | 1013.5 |
| 20260510075314 | 10 | 138 | 0.0 | 0.0 | 0.00 | 0.00 | 0.00 | 99 | 1013.4 |
| 20260510074811 | 10 | 137 | 0.0 | 0.0 | 0.00 | 0.00 | 0.00 | 99 | 1013.3 |
| 20260510074308 | 10 | 137 | 0.0 | 0.0 | 0.00 | 0.00 | 0.00 | 99 | 1013.2 |
| 20260510073803 | 10 | 138 | 0.0 | 0.0 | 0.00 | 0.00 | 0.00 | 99 | 1013.3 |
| 20260510073300 | 10 | 138 | 0.0 | 0.0 | 0.00 | 0.00 | 0.00 | 99 | 1013.1 |
| 20260510072755 | 10 | 138 | 0.0 | 0.0 | 0.00 | 0.00 | 0.00 | 99 | 1013.3 |
| 20260510072252 | 10 | 138 | 0.0 | 0.0 | 0.00 | 0.00 | 0.00 | 99 | 1013.5 |
| 20260510071749 | 10 | 138 | 0.0 | 0.0 | 0.00 | 0.00 | 0.00 | 99 | 1013.2 |
| 20260510071246 | 10 | 138 | 0.0 | 0.0 | 0.00 | 0.00 | 0.00 | 99 | 1013.4 |
| 20260510070744 | 10 | 138 | 0.0 | 0.0 | 0.00 | 0.00 | 0.00 | 99 | 1013.2 |
| 20260510070241 | 10 | 138 | 0.0 | 0.0 | 0.00 | 0.00 | 0.00 | 99 | 1013.3 |
| 20260510065735 | 10 | 138 | 0.0 | 3.2 | 0.00 | 0.00 | 0.00 | 99 | 1013.0 |
| 20260510065232 | 10 | 133 | 0.0 | 0.0 | 0.00 | 0.00 | 0.00 | 99 | 1013.2 |
| 20260510064728 | 10 | 133 | 0.0 | 0.0 | 0.00 | 0.00 | 0.00 | 99 | 1013.3 |
| 20260510064226 | 10 | 155 | 1.6 | 1.6 | 0.00 | 0.00 | 0.00 | 99 | 1013.3 |
| 20260510063723 | 10 | 138 | 0.0 | 3.2 | 0.00 | 0.00 | 0.00 | 99 | 1013.2 |
| 20260510063219 | 10 | 146 | 0.0 | 3.2 | 0.00 | 0.00 | 0.00 | 99 | 1013.3 |
| 20260510062716 | 10 | 137 | 0.0 | 0.0 | 0.00 | 0.00 | 0.00 | 99 | 1013.5 |
| 20260510062212 | 10 | 136 | 0.0 | 0.0 | 0.00 | 0.00 | 0.00 | 99 | 1013.2 |
| 20260510061707 | 10 | 136 | 0.0 | 0.0 | 0.00 | 0.00 | 0.00 | 99 | 1013.1 |
| 20260510061204 | 10 | 136 | 0.0 | 0.0 | 0.00 | 0.00 | 0.00 | 99 | 1012.8 |
| 20260510060701 | 10 | 136 | 0.0 | 0.0 | 0.00 | 0.00 | 0.00 | 99 | 1012.8 |
| 20260510060157 | 10 | 136 | 0.0 | 0.0 | 0.00 | 0.00 | 0.00 | 99 | 1012.7 |
| 20260510055654 | 10 | 136 | 0.0 | 0.0 | 0.00 | 0.00 | 0.00 | 99 | 1013.0 |
| 20260510055152 | 10 | 136 | 0.0 | 0.0 | 0.00 | 0.00 | 0.00 | 99 | 1013.1 |
| 20260510054647 | 10 | 136 | 0.0 | 0.0 | 0.00 | 0.00 | 0.00 | 99 | 1013.2 |
| 20260510054143 | 10 | 136 | 0.0 | 0.0 | 0.00 | 0.00 | 0.00 | 99 | 1013.1 |
| 20260510053642 | 10 | 136 | 0.0 | 0.0 | 0.00 | 0.00 | 0.00 | 99 | 1013.1 |
| 20260510053139 | 10 | 136 | 0.0 | 0.0 | 0.00 | 0.00 | 0.00 | 99 | 1013.3 |
| 20260510052635 | 10 | 136 | 0.0 | 0.0 | 0.00 | 0.00 | 0.00 | 99 | 1013.1 |
| 20260510052131 | 10 | 136 | 0.0 | 0.0 | 0.00 | 0.00 | 0.00 | 99 | 1013.1 |
| 20260510051627 | 10 | 136 | 0.0 | 0.0 | 0.00 | 0.00 | 0.00 | 99 | 1013.1 |
| 20260510051124 | 10 | 138 | 0.0 | 0.0 | 0.00 | 0.00 | 0.00 | 99 | 1013.0 |
| 20260510050621 | 10 | 138 | 0.0 | 0.0 | 0.00 | 0.00 | 0.00 | 99 | 1013.0 |
| 20260510050118 | 10 | 137 | 0.0 | 0.0 | 0.00 | 0.00 | 0.00 | 99 | 1013.2 |
| 20260510045615 | 10 | 126 | 0.0 | 0.0 | 0.00 | 0.00 | 0.00 | 99 | 1013.2 |
| 20260510045111 | 10 | 126 | 0.0 | 0.0 | 0.00 | 0.00 | 0.00 | 99 | 1013.1 |
| 20260510044608 | 10 | 126 | 0.0 | 0.0 | 0.00 | 0.00 | 0.00 | 99 | 1013.1 |
| 20260510044105 | 10 | 126 | 0.0 | 0.0 | 0.00 | 0.00 | 0.00 | 99 | 1013.0 |
| 20260510043600 | 10 | 126 | 0.0 | 0.0 | 0.00 | 0.00 | 0.00 | 99 | 1013.0 |
| 20260510043057 | 10 | 126 | 0.0 | 0.0 | 0.00 | 0.00 | 0.00 | 99 | 1012.9 |
| 20260510042555 | 11 | 126 | 0.0 | 0.0 | 0.00 | 0.00 | 0.00 | 99 | 1013.4 |
| 20260510042051 | 11 | 126 | 0.0 | 0.0 | 0.00 | 0.00 | 0.00 | 99 | 1013.2 |
| 20260510041548 | 11 | 126 | 0.0 | 0.0 | 0.00 | 0.00 | 0.00 | 99 | 1013.3 |
| 20260510041046 | 11 | 126 | 0.0 | 0.0 | 0.00 | 0.00 | 0.00 | 99 | 1013.0 |
| 20260510040542 | 11 | 126 | 0.0 | 0.0 | 0.00 | 0.00 | 0.00 | 99 | 1012.9 |
| 20260510040038 | 11 | 125 | 0.0 | 0.0 | 0.00 | 2.64 | 2.64 | 99 | 1012.7 |
| 20260510035535 | 11 | 125 | 0.0 | 0.0 | 0.00 | 2.64 | 2.64 | 99 | 1012.8 |
| 20260510035034 | 11 | 125 | 0.0 | 0.0 | 0.00 | 2.64 | 2.64 | 99 | 1012.8 |
| 20260510034533 | 11 | 125 | 0.0 | 0.0 | 0.00 | 2.64 | 2.64 | 99 | 1013.0 |
| 20260510034029 | 11 | 124 | 0.0 | 0.0 | 0.00 | 2.64 | 2.64 | 99 | 1013.0 |
| 20260510033525 | 11 | 132 | 0.0 | 0.0 | 0.00 | 2.64 | 2.64 | 99 | 1012.9 |
| 20260510033023 | 11 | 133 | 0.0 | 0.0 | 0.00 | 2.64 | 2.64 | 99 | 1012.8 |
| 20260510032519 | 11 | 135 | 0.0 | 0.0 | 0.00 | 2.64 | 2.64 | 99 | 1013.2 |
| 20260510032015 | 11 | 136 | 0.0 | 0.0 | 0.00 | 2.64 | 2.64 | 99 | 1013.2 |
| 20260510031510 | 11 | 139 | 0.0 | 1.6 | 0.00 | 2.64 | 2.64 | 99 | 1013.3 |
| 20260510031006 | 11 | 133 | 0.0 | 0.0 | 0.00 | 2.64 | 2.64 | 99 | 1013.2 |
| 20260510030502 | 11 | 132 | 0.0 | 0.0 | 0.00 | 2.64 | 2.64 | 99 | 1013.4 |
| 20260510025959 | 11 | 133 | 0.0 | 0.0 | 0.00 | 2.64 | 2.64 | 99 | 1013.2 |
| 20260510025456 | 11 | 129 | 0.0 | 0.0 | 0.00 | 2.64 | 2.64 | 99 | 1013.1 |
| 20260510024954 | 11 | 130 | 0.0 | 0.0 | 0.00 | 2.64 | 2.64 | 99 | 1013.0 |
| 20260510024450 | 11 | 130 | 0.0 | 0.0 | 0.00 | 2.64 | 2.64 | 99 | 1013.2 |
| 20260510023946 | 11 | 130 | 0.0 | 0.0 | 0.00 | 2.64 | 2.64 | 99 | 1013.0 |
| 20260510023443 | 11 | 129 | 0.0 | 0.0 | 0.00 | 2.64 | 2.64 | 99 | 1012.8 |
| 20260510022939 | 11 | 130 | 0.0 | 0.0 | 0.00 | 2.64 | 2.64 | 99 | 1012.8 |
| 20260510022438 | 10 | 130 | 0.0 | 0.0 | 0.00 | 2.64 | 2.64 | 99 | 1013.0 |
| 20260510021938 | 10 | 130 | 0.0 | 0.0 | 0.00 | 2.64 | 2.64 | 99 | 1013.0 |
| 20260510021436 | 10 | 130 | 0.0 | 0.0 | 0.00 | 2.64 | 2.64 | 99 | 1012.9 |
| 20260510020933 | 10 | 130 | 0.0 | 0.0 | 0.00 | 2.64 | 2.64 | 99 | 1013.1 |
| 20260510020433 | 11 | 130 | 0.0 | 0.0 | 0.00 | 2.64 | 2.64 | 99 | 1013.0 |
| 20260510015929 | 11 | 129 | 0.0 | 0.0 | 0.00 | 2.64 | 2.64 | 99 | 1013.0 |
| 20260510015425 | 11 | 132 | 0.0 | 0.0 | 0.00 | 2.64 | 2.64 | 99 | 1013.1 |
| 20260510014920 | 11 | 132 | 0.0 | 0.0 | 0.00 | 2.64 | 2.64 | 99 | 1012.9 |
| 20260510014418 | 11 | 133 | 0.0 | 0.0 | 0.00 | 2.64 | 2.64 | 99 | 1013.1 |
| 20260510013914 | 11 | 123 | 0.0 | 0.0 | 0.00 | 2.64 | 2.64 | 99 | 1013.0 |
| 20260510013409 | 11 | 124 | 0.0 | 0.0 | 0.00 | 2.64 | 2.64 | 99 | 1013.0 |
| 20260510012904 | 11 | 123 | 0.0 | 0.0 | 0.00 | 2.64 | 2.64 | 98 | 1013.1 |
| 20260510012400 | 11 | 123 | 0.0 | 0.0 | 0.00 | 2.64 | 2.64 | 98 | 1013.1 |
| 20260510011854 | 11 | 125 | 0.0 | 0.0 | 0.00 | 2.64 | 2.64 | 98 | 1012.9 |
| 20260510011350 | 11 | 125 | 0.0 | 0.0 | 0.00 | 2.64 | 2.64 | 98 | 1012.7 |
| 20260510010846 | 11 | 125 | 0.0 | 0.0 | 0.00 | 2.64 | 2.64 | 98 | 1012.9 |
| 20260510010344 | 11 | 125 | 0.0 | 0.0 | 0.00 | 2.64 | 2.64 | 98 | 1012.9 |
| 20260510005840 | 11 | 125 | 0.0 | 0.0 | 0.00 | 2.64 | 2.64 | 98 | 1012.6 |
| 20260510005337 | 11 | 125 | 0.0 | 0.0 | 0.00 | 2.64 | 2.64 | 98 | 1012.7 |
| 20260510004834 | 11 | 125 | 0.0 | 0.0 | 0.00 | 2.64 | 2.64 | 98 | 1012.5 |
| 20260510004332 | 11 | 125 | 0.0 | 0.0 | 0.00 | 2.64 | 2.64 | 98 | 1012.4 |
| 20260510003829 | 11 | 125 | 0.0 | 0.0 | 0.00 | 2.64 | 2.64 | 98 | 1012.5 |
| 20260510003326 | 11 | 125 | 0.0 | 0.0 | 0.00 | 2.64 | 2.64 | 98 | 1012.2 |
| 20260510002825 | 11 | 125 | 0.0 | 0.0 | 0.00 | 2.64 | 2.64 | 98 | 1012.3 |
| 20260510002322 | 11 | 125 | 0.0 | 0.0 | 0.00 | 2.64 | 2.64 | 98 | 1012.2 |
| 20260510001818 | 11 | 125 | 0.0 | 0.0 | 0.00 | 2.64 | 2.64 | 98 | 1012.4 |
| 20260510001317 | 11 | 125 | 0.0 | 0.0 | 0.00 | 2.64 | 2.64 | 98 | 1012.2 |
| 20260510000812 | 11 | 124 | 0.0 | 0.0 | 0.00 | 2.64 | 2.64 | 98 | 1012.2 |
| 20260510000311 | 11 | 124 | 0.0 | 0.0 | 0.00 | 2.64 | 2.64 | 98 | 1012.4 |
| 20260509235807 | 11 | 122 | 0.0 | 0.0 | 0.00 | 2.64 | 2.64 | 98 | 1012.3 |
| 20260509235306 | 11 | 122 | 0.0 | 0.0 | 0.00 | 2.64 | 2.64 | 98 | 1012.4 |
| 20260509234759 | 11 | 122 | 0.0 | 0.0 | 0.00 | 2.64 | 2.64 | 98 | 1012.3 |
| 20260509234256 | 11 | 122 | 0.0 | 0.0 | 0.00 | 2.64 | 2.64 | 98 | 1012.2 |
| 20260509233755 | 11 | 122 | 0.0 | 0.0 | 0.00 | 2.64 | 2.64 | 98 | 1012.5 |
| 20260509233252 | 11 | 122 | 0.0 | 0.0 | 0.00 | 2.64 | 2.64 | 98 | 1012.2 |
| 20260509232748 | 11 | 122 | 0.0 | 0.0 | 0.00 | 2.64 | 2.64 | 98 | 1012.5 |
| 20260509232245 | 11 | 122 | 0.0 | 0.0 | 0.00 | 2.64 | 2.64 | 98 | 1012.4 |
| 20260509231741 | 11 | 122 | 0.0 | 0.0 | 0.00 | 2.64 | 2.64 | 98 | 1012.4 |